AIC522 VIDP-VEGT

Flight info

Callsign AIC522
Flight time 2h 9m
Altitude 25000
Route ALI6G ALI G452 LKN Q18 OPIMO OPIM1A
Aircraft 320/M-VGDW/C

Departure

Time 2026-05-09 10:09
Airport Indira Gandhi International Airport (VIDP)

Arrival

Time 2026-05-09 12:19
Airport Lokpriya Gopinath Bordoloi International Airport (VEGT)
Time Latitude Longitude Altitude Speed Heading
2026-05-09 09:32 28.55868 77.09776 754 ft 0 kts 189°
2026-05-09 09:55 28.55883 77.09782 751 ft 3 kts 222°
2026-05-09 09:56 28.55886 77.09786 752 ft 2 kts 231°
2026-05-09 09:56 28.55896 77.09795 753 ft 3 kts 202°
2026-05-09 09:56 28.55913 77.09803 753 ft 3 kts 203°
2026-05-09 09:56 28.55931 77.09812 751 ft 3 kts 219°
2026-05-09 09:57 28.55942 77.09830 750 ft 3 kts 259°
2026-05-09 09:57 28.55942 77.09844 752 ft 0 kts 288°
2026-05-09 10:00 28.55954 77.09790 753 ft 0 kts 283°
2026-05-09 10:00 28.55957 77.09771 754 ft 4 kts 284°
2026-05-09 10:00 28.55966 77.09732 750 ft 6 kts 284°
2026-05-09 10:01 28.55980 77.09675 749 ft 8 kts 286°
2026-05-09 10:01 28.55997 77.09606 750 ft 10 kts 285°
2026-05-09 10:01 28.56017 77.09520 749 ft 12 kts 284°
2026-05-09 10:01 28.56041 77.09416 747 ft 15 kts 284°
2026-05-09 10:02 28.56069 77.09293 747 ft 17 kts 285°
2026-05-09 10:02 28.56098 77.09157 745 ft 18 kts 282°
2026-05-09 10:02 28.56148 77.09047 742 ft 10 kts 335°
2026-05-09 10:02 28.56211 77.09059 743 ft 10 kts 17°
2026-05-09 10:03 28.56281 77.09081 743 ft 11 kts 15°
2026-05-09 10:03 28.56357 77.09102 742 ft 11 kts
2026-05-09 10:03 28.56406 77.09048 743 ft 11 kts 284°
2026-05-09 10:03 28.56428 77.08953 740 ft 14 kts 285°
2026-05-09 10:04 28.56455 77.08840 739 ft 16 kts 286°
2026-05-09 10:04 28.56486 77.08711 736 ft 18 kts 283°
2026-05-09 10:04 28.56519 77.08565 735 ft 20 kts 284°
2026-05-09 10:04 28.56553 77.08409 733 ft 14 kts 285°
2026-05-09 10:05 28.56628 77.08378 732 ft 13 kts 32°
2026-05-09 10:05 28.56674 77.08464 732 ft 13 kts 62°
2026-05-09 10:05 28.56726 77.08549 732 ft 13 kts 35°
2026-05-09 10:05 28.56799 77.08603 733 ft 12 kts 37°
2026-05-09 10:06 28.56867 77.08668 733 ft 14 kts 40°
2026-05-09 10:06 28.56948 77.08748 731 ft 17 kts 41°
2026-05-09 10:06 28.57023 77.08823 731 ft 13 kts 44°
2026-05-09 10:06 28.57056 77.08889 733 ft 0 kts 85°
2026-05-09 10:07 28.57056 77.08890 733 ft 0 kts 83°
2026-05-09 10:07 28.57056 77.08906 733 ft 2 kts 91°
2026-05-09 10:08 28.57055 77.08922 732 ft 2 kts 94°
2026-05-09 10:08 28.57055 77.08925 733 ft 0 kts 92°
2026-05-09 10:08 28.57051 77.09129 735 ft 57 kts 90°
2026-05-09 10:09 28.57038 77.09846 745 ft 134 kts 92°
2026-05-09 10:09 28.56998 77.11104 1287 ft 171 kts 92°
2026-05-09 10:09 28.56667 77.12451 2026 ft 194 kts 129°
2026-05-09 10:09 28.55547 77.12848 2600 ft 149 kts 172°
2026-05-09 10:10 28.54526 77.12881 2964 ft 155 kts 176°
2026-05-09 10:10 28.53379 77.12891 3401 ft 161 kts 178°
2026-05-09 10:10 28.52142 77.12926 3808 ft 197 kts 176°
2026-05-09 10:10 28.50759 77.13007 4294 ft 189 kts 174°
2026-05-09 10:11 28.49548 77.13107 4621 ft 164 kts 173°
2026-05-09 10:11 28.48428 77.13201 4904 ft 163 kts 176°
2026-05-09 10:11 28.47255 77.13241 5106 ft 174 kts 177°
2026-05-09 10:11 28.46014 77.13297 5370 ft 182 kts 175°
2026-05-09 10:12 28.44714 77.13405 5635 ft 192 kts 175°
2026-05-09 10:12 28.43320 77.13530 5915 ft 213 kts 175°
2026-05-09 10:12 28.41743 77.13660 6193 ft 240 kts 176°
2026-05-09 10:12 28.39999 77.13776 6448 ft 259 kts 177°
2026-05-09 10:13 28.38202 77.13894 6289 ft 259 kts 176°
2026-05-09 10:13 28.36376 77.14009 5642 ft 267 kts 176°
2026-05-09 10:13 28.34526 77.14117 5082 ft 271 kts 176°
2026-05-09 10:13 28.32647 77.14255 4594 ft 271 kts 175°
2026-05-09 10:14 28.30773 77.14427 4147 ft 268 kts 167°
2026-05-09 10:14 28.29593 77.15743 4711 ft 241 kts 117°
2026-05-09 10:14 28.28801 77.17424 5478 ft 242 kts 117°
2026-05-09 10:14 28.28006 77.19108 6263 ft 242 kts 118°
2026-05-09 10:15 28.27210 77.20780 6725 ft 244 kts 118°
2026-05-09 10:15 28.26373 77.22519 6894 ft 257 kts 118°
2026-05-09 10:15 28.25490 77.24349 7052 ft 270 kts 118°
2026-05-09 10:15 28.24887 77.25601 7160 ft 277 kts 118°
2026-05-09 10:16 28.23504 77.28143 7740 ft 287 kts 121°
2026-05-09 10:16 28.22469 77.30097 8373 ft 291 kts 120°
2026-05-09 10:16 28.21447 77.32088 9013 ft 294 kts 119°
2026-05-09 10:16 28.20433 77.34118 9675 ft 298 kts 118°
2026-05-09 10:17 28.19424 77.36146 10268 ft 301 kts 118°
2026-05-09 10:17 28.18384 77.38226 10880 ft 304 kts 118°
2026-05-09 10:17 28.17324 77.40325 11518 ft 308 kts 118°
2026-05-09 10:17 28.16250 77.42439 12161 ft 312 kts 118°
2026-05-09 10:18 28.15150 77.44584 12835 ft 317 kts 118°
2026-05-09 10:18 28.14026 77.46756 13515 ft 321 kts 118°
2026-05-09 10:18 28.12882 77.48947 14144 ft 325 kts 118°
2026-05-09 10:18 28.11724 77.51161 14814 ft 327 kts 118°
2026-05-09 10:19 28.10579 77.53355 15489 ft 329 kts 118°
2026-05-09 10:19 28.09414 77.55594 16182 ft 331 kts 118°
2026-05-09 10:19 28.08245 77.57853 16883 ft 333 kts 118°
2026-05-09 10:19 28.07071 77.60129 17585 ft 335 kts 118°
2026-05-09 10:20 28.05894 77.62416 18274 ft 338 kts 118°
2026-05-09 10:20 28.04706 77.64727 18876 ft 341 kts 118°
2026-05-09 10:20 28.03500 77.67068 19457 ft 346 kts 118°
2026-05-09 10:20 28.02278 77.69430 20040 ft 350 kts 118°
2026-05-09 10:21 28.01040 77.71817 20631 ft 354 kts 118°
2026-05-09 10:21 27.99783 77.74229 21208 ft 358 kts 118°
2026-05-09 10:21 27.98941 77.75841 21595 ft 360 kts 118°
2026-05-09 10:21 27.97657 77.78294 22166 ft 365 kts 118°
2026-05-09 10:22 27.95910 77.81622 22966 ft 370 kts 118°
2026-05-09 10:22 27.94588 77.84135 23545 ft 374 kts 118°
2026-05-09 10:22 27.93248 77.86677 24050 ft 379 kts 118°
2026-05-09 10:22 27.92345 77.88384 24376 ft 382 kts 118°
2026-05-09 10:23 27.90973 77.90973 24786 ft 385 kts 118°
2026-05-09 10:23 27.89591 77.93573 24939 ft 386 kts 118°
2026-05-09 10:23 27.88207 77.96178 24957 ft 387 kts 118°
2026-05-09 10:23 27.86821 77.98794 24957 ft 388 kts 118°
2026-05-09 10:24 27.85435 78.01413 24957 ft 389 kts 118°
2026-05-09 10:24 27.84049 78.04038 24959 ft 389 kts 118°
2026-05-09 10:24 27.82665 78.06666 24961 ft 389 kts 118°
2026-05-09 10:24 27.81286 78.09292 24960 ft 389 kts 118°
2026-05-09 10:25 27.80301 78.11170 24957 ft 389 kts 118°
2026-05-09 10:25 27.79107 78.13450 24959 ft 388 kts 118°
2026-05-09 10:25 27.77733 78.16080 24957 ft 388 kts 118°
2026-05-09 10:25 27.76379 78.18677 24954 ft 388 kts 118°
2026-05-09 10:26 27.75007 78.21310 24957 ft 388 kts 118°
2026-05-09 10:26 27.73637 78.23944 24956 ft 388 kts 118°
2026-05-09 10:26 27.72272 78.26576 24956 ft 388 kts 118°
2026-05-09 10:26 27.70907 78.29212 24953 ft 388 kts 118°
2026-05-09 10:27 27.69544 78.31848 24949 ft 388 kts 118°
2026-05-09 10:27 27.68183 78.34482 24951 ft 388 kts 118°
2026-05-09 10:27 27.66819 78.37122 24952 ft 389 kts 118°
2026-05-09 10:27 27.65457 78.39762 24950 ft 389 kts 118°
2026-05-09 10:28 27.64098 78.42396 24950 ft 389 kts 118°
2026-05-09 10:28 27.62737 78.45036 24949 ft 389 kts 118°
2026-05-09 10:28 27.61406 78.47646 24949 ft 389 kts 117°
2026-05-09 10:28 27.60073 78.50348 24945 ft 389 kts 116°
2026-05-09 10:29 27.58813 78.53040 24948 ft 389 kts 115°
2026-05-09 10:29 27.57572 78.55749 24948 ft 389 kts 114°
2026-05-09 10:29 27.56386 78.58484 24946 ft 389 kts 114°
2026-05-09 10:29 27.55212 78.61236 24946 ft 389 kts 114°
2026-05-09 10:30 27.54045 78.63979 24950 ft 389 kts 114°
2026-05-09 10:30 27.52876 78.66729 24949 ft 389 kts 114°
2026-05-09 10:30 27.51724 78.69445 24950 ft 389 kts 114°
2026-05-09 10:30 27.50589 78.72220 24949 ft 389 kts 111°
2026-05-09 10:31 27.49526 78.75024 24948 ft 388 kts 110°
2026-05-09 10:31 27.48482 78.77832 24945 ft 388 kts 110°
2026-05-09 10:31 27.47442 78.80638 24945 ft 388 kts 110°
2026-05-09 10:31 27.46405 78.83443 24951 ft 388 kts 110°
2026-05-09 10:32 27.45368 78.86248 24949 ft 388 kts 110°
2026-05-09 10:32 27.44331 78.89055 24949 ft 388 kts 110°
2026-05-09 10:32 27.43295 78.91863 24949 ft 388 kts 110°
2026-05-09 10:32 27.42274 78.94634 24948 ft 388 kts 110°
2026-05-09 10:33 27.41228 78.97477 24953 ft 388 kts 110°
2026-05-09 10:33 27.40210 79.00245 24948 ft 388 kts 110°
2026-05-09 10:33 27.39177 79.03052 24948 ft 387 kts 110°
2026-05-09 10:33 27.38187 79.05871 24947 ft 387 kts 109°
2026-05-09 10:34 27.37240 79.08701 24952 ft 387 kts 108°
2026-05-09 10:34 27.35351 79.14383 24952 ft 387 kts 108°
2026-05-09 10:34 27.34441 79.17237 24949 ft 387 kts 107°
2026-05-09 10:35 27.33620 79.20117 24950 ft 386 kts 104°
2026-05-09 10:35 27.32893 79.23019 24956 ft 385 kts 102°
2026-05-09 10:35 27.32279 79.25949 24949 ft 385 kts 100°
2026-05-09 10:35 27.31764 79.28860 24947 ft 384 kts 98°
2026-05-09 10:36 27.31319 79.31863 24947 ft 384 kts 96°
2026-05-09 10:36 27.30915 79.34780 24945 ft 383 kts 96°
2026-05-09 10:36 27.30676 79.37754 24949 ft 381 kts 88°
2026-05-09 10:36 27.30847 79.40713 24948 ft 378 kts 78°
2026-05-09 10:37 27.31319 79.43614 24973 ft 378 kts 77°
2026-05-09 10:37 27.31190 79.46528 25386 ft 380 kts 107°
2026-05-09 10:37 27.30089 79.49239 25946 ft 382 kts 114°
2026-05-09 10:37 27.28922 79.51941 26464 ft 385 kts 114°
2026-05-09 10:38 27.27750 79.54678 26806 ft 393 kts 114°
2026-05-09 10:38 27.26564 79.57461 27215 ft 397 kts 114°
2026-05-09 10:38 27.25366 79.60276 27647 ft 401 kts 114°
2026-05-09 10:38 27.24158 79.63119 28085 ft 404 kts 114°
2026-05-09 10:39 27.22942 79.65987 28538 ft 407 kts 114°
2026-05-09 10:39 27.21718 79.68877 28996 ft 409 kts 114°
2026-05-09 10:39 27.20507 79.71740 29456 ft 412 kts 114°
2026-05-09 10:39 27.19272 79.74663 29897 ft 415 kts 114°
2026-05-09 10:40 27.18031 79.77607 30263 ft 419 kts 114°
2026-05-09 10:40 27.16776 79.80581 30582 ft 422 kts 114°
2026-05-09 10:40 27.15526 79.83543 31249 ft 416 kts 114°
2026-05-09 10:40 27.14281 79.86497 31598 ft 423 kts 114°
2026-05-09 10:41 27.12994 79.89521 31788 ft 433 kts 115°
2026-05-09 10:41 27.11669 79.92596 31993 ft 442 kts 115°
2026-05-09 10:41 27.10304 79.95722 32196 ft 451 kts 115°
2026-05-09 10:41 27.08936 79.98929 32366 ft 460 kts 114°
2026-05-09 10:42 27.07564 80.02205 32532 ft 468 kts 114°
2026-05-09 10:42 27.06167 80.05549 32696 ft 477 kts 114°
2026-05-09 10:42 27.04750 80.08949 32853 ft 485 kts 114°
2026-05-09 10:42 27.03312 80.12412 33007 ft 493 kts 114°
2026-05-09 10:43 27.01872 80.15888 33157 ft 501 kts 114°
2026-05-09 10:43 27.00399 80.19451 33304 ft 508 kts 114°
2026-05-09 10:43 26.98906 80.23073 33495 ft 513 kts 114°
2026-05-09 10:43 26.97409 80.26721 33811 ft 515 kts 114°
2026-05-09 10:44 26.95911 80.30386 34116 ft 517 kts 114°
2026-05-09 10:44 26.94416 80.34062 34441 ft 517 kts 114°
2026-05-09 10:44 26.92934 80.37730 34751 ft 518 kts 114°
2026-05-09 10:44 26.91475 80.41367 34957 ft 516 kts 114°
2026-05-09 10:46 26.84173 80.59802 34944 ft 518 kts 114°
2026-05-09 10:46 26.81337 80.67229 34944 ft 518 kts 113°
2026-05-09 10:47 26.78556 80.74680 34941 ft 519 kts 113°
2026-05-09 10:47 26.75802 80.82101 34940 ft 519 kts 113°
2026-05-09 10:48 26.73066 80.89565 34939 ft 519 kts 112°
2026-05-09 10:48 26.70543 80.97155 34937 ft 520 kts 110°
2026-05-09 10:49 26.68283 81.04840 34943 ft 520 kts 108°
2026-05-09 10:49 26.66116 81.12513 34951 ft 520 kts 108°
2026-05-09 10:50 26.63949 81.20248 34955 ft 521 kts 108°
2026-05-09 10:50 26.61795 81.27985 34960 ft 521 kts 108°
2026-05-09 10:51 26.59653 81.35729 34959 ft 521 kts 108°
2026-05-09 10:51 26.57553 81.43502 34959 ft 522 kts 107°
2026-05-09 10:52 26.55640 81.51293 34956 ft 523 kts 106°
2026-05-09 10:52 26.53747 81.59141 34963 ft 523 kts 106°
2026-05-09 10:53 26.51864 81.66994 34962 ft 524 kts 106°
2026-05-09 10:53 26.49991 81.74861 34959 ft 524 kts 106°
2026-05-09 10:54 26.48144 81.82683 34960 ft 524 kts 106°
2026-05-09 10:54 26.46296 81.90559 34959 ft 524 kts 106°
2026-05-09 10:55 26.44465 81.98432 34958 ft 524 kts 106°
2026-05-09 10:55 26.42638 82.06324 34959 ft 525 kts 106°
2026-05-09 10:56 26.40826 82.14200 34957 ft 525 kts 106°
2026-05-09 10:56 26.39020 82.22098 34953 ft 525 kts 106°
2026-05-09 10:57 26.37235 82.29965 34952 ft 526 kts 106°
2026-05-09 10:57 26.35450 82.37887 34953 ft 526 kts 106°
2026-05-09 10:57 26.34561 82.41845 35065 ft 523 kts 105°
2026-05-09 10:58 26.33684 82.45560 36730 ft 484 kts 106°
2026-05-09 10:58 26.32805 82.49146 37354 ft 478 kts 106°
2026-05-09 10:58 26.31932 82.52746 37594 ft 482 kts 106°
2026-05-09 10:58 26.31053 82.56389 37482 ft 493 kts 106°
2026-05-09 10:59 26.30151 82.60134 37237 ft 506 kts 106°
2026-05-09 10:59 26.29229 82.63960 36987 ft 513 kts 106°
2026-05-09 10:59 26.28304 82.67802 36737 ft 513 kts 106°
2026-05-09 10:59 26.27382 82.71638 36491 ft 512 kts 106°
2026-05-09 11:00 26.26462 82.75469 36248 ft 511 kts 106°
2026-05-09 11:00 26.25557 82.79244 36007 ft 510 kts 106°
2026-05-09 11:00 26.24642 82.83064 35765 ft 510 kts 106°
2026-05-09 11:00 26.23729 82.86881 35532 ft 509 kts 106°
2026-05-09 11:01 26.22817 82.90700 35295 ft 508 kts 106°
2026-05-09 11:01 26.21913 82.94503 35064 ft 507 kts 106°
2026-05-09 11:01 26.20961 82.98247 34958 ft 507 kts 108°
2026-05-09 11:02 26.18980 83.05782 34951 ft 506 kts 108°
2026-05-09 11:02 26.17018 83.13311 34950 ft 506 kts 108°
2026-05-09 11:03 26.15088 83.20804 34944 ft 506 kts 108°
2026-05-09 11:03 26.13138 83.28325 34942 ft 506 kts 109°
2026-05-09 11:04 26.11048 83.35796 34940 ft 506 kts 109°
2026-05-09 11:04 26.08950 83.43270 34937 ft 505 kts 109°
2026-05-09 11:05 26.06858 83.50741 34933 ft 505 kts 109°
2026-05-09 11:05 26.04226 83.57915 35007 ft 499 kts 121°
2026-05-09 11:05 26.02728 83.61407 35121 ft 500 kts 115°
2026-05-09 11:06 26.01524 83.65048 35292 ft 504 kts 108°
2026-05-09 11:06 26.00901 83.67547 35481 ft 505 kts 108°
2026-05-09 11:06 25.99979 83.71321 35673 ft 508 kts 107°
2026-05-09 11:06 25.98810 83.76405 35471 ft 507 kts 107°
2026-05-09 11:07 25.98238 83.78925 35314 ft 508 kts 107°
2026-05-09 11:07 25.97374 83.82738 35083 ft 508 kts 107°
2026-05-09 11:07 25.96232 83.87787 34940 ft 508 kts 107°
2026-05-09 11:08 25.94801 83.94128 34930 ft 508 kts 107°
2026-05-09 11:08 25.93095 84.01750 34929 ft 508 kts 107°
2026-05-09 11:09 25.91419 84.09310 34933 ft 508 kts 107°
2026-05-09 11:09 25.89742 84.16941 34932 ft 508 kts 107°
2026-05-09 11:10 25.88087 84.24542 34930 ft 509 kts 107°
2026-05-09 11:10 25.86437 84.32202 34928 ft 510 kts 107°
2026-05-09 11:11 25.84801 84.39882 34932 ft 511 kts 107°
2026-05-09 11:11 25.83178 84.47583 34929 ft 512 kts 107°
2026-05-09 11:12 25.81569 84.55305 34926 ft 513 kts 107°
2026-05-09 11:12 25.79976 84.62987 34928 ft 514 kts 107°
2026-05-09 11:13 25.78404 84.70627 34919 ft 491 kts 107°
2026-05-09 11:13 25.77668 84.74255 34920 ft 473 kts 107°
2026-05-09 11:13 25.76965 84.77750 34920 ft 456 kts 107°
2026-05-09 11:13 25.76294 84.81124 34917 ft 443 kts 107°
2026-05-09 11:14 25.75620 84.84510 34928 ft 455 kts 107°
2026-05-09 11:14 25.74925 84.87982 34928 ft 467 kts 107°
2026-05-09 11:14 25.74209 84.91535 34923 ft 474 kts 107°
2026-05-09 11:15 25.72767 84.98632 34916 ft 471 kts 107°
2026-05-09 11:15 25.72033 85.02214 34922 ft 482 kts 106°
2026-05-09 11:15 25.71287 85.05838 34917 ft 493 kts 106°
2026-05-09 11:16 25.69722 85.13409 34916 ft 513 kts 106°
2026-05-09 11:16 25.68267 85.21297 34925 ft 535 kts 96°
2026-05-09 11:16 25.68431 85.25373 34964 ft 521 kts 85°
2026-05-09 11:17 25.68899 85.29295 35007 ft 503 kts 83°
2026-05-09 11:17 25.69452 85.33059 35045 ft 487 kts 81°
2026-05-09 11:17 25.70081 85.36691 34950 ft 474 kts 79°
2026-05-09 11:17 25.70724 85.40228 34920 ft 460 kts 79°
2026-05-09 11:18 25.71423 85.43638 34920 ft 447 kts 75°
2026-05-09 11:18 25.72327 85.46875 34924 ft 434 kts 71°
2026-05-09 11:18 25.73318 85.49951 34922 ft 422 kts 72°
2026-05-09 11:18 25.74122 85.53034 34922 ft 410 kts 77°
2026-05-09 11:19 25.74738 85.56082 34921 ft 398 kts 80°
2026-05-09 11:19 25.75223 85.59059 34921 ft 387 kts 82°
2026-05-09 11:19 25.75644 85.61961 34920 ft 376 kts 83°
2026-05-09 11:19 25.76048 85.64783 34917 ft 365 kts 83°
2026-05-09 11:20 25.76442 85.67521 34916 ft 354 kts 83°
2026-05-09 11:20 25.76825 85.70171 34914 ft 342 kts 83°
2026-05-09 11:20 25.77160 85.72482 34914 ft 331 kts 83°
2026-05-09 11:21 25.77732 85.77646 34973 ft 348 kts 86°
2026-05-09 11:21 25.78044 85.80335 34957 ft 363 kts 83°
2026-05-09 11:21 25.78427 85.83159 34953 ft 377 kts 83°
2026-05-09 11:21 25.78833 85.86096 34949 ft 392 kts 83°
2026-05-09 11:22 25.79254 85.89137 34948 ft 406 kts 83°
2026-05-09 11:22 25.80119 85.95351 34935 ft 407 kts 82°
2026-05-09 11:23 25.81019 86.01658 34951 ft 426 kts 83°
2026-05-09 11:23 25.81492 86.04969 34954 ft 440 kts 83°
2026-05-09 11:23 25.81975 86.08370 34944 ft 453 kts 83°
2026-05-09 11:23 25.82470 86.11874 34951 ft 465 kts 83°
2026-05-09 11:24 25.82975 86.15471 34946 ft 477 kts 83°
2026-05-09 11:24 25.83491 86.19155 34942 ft 489 kts 83°
2026-05-09 11:24 25.84011 86.22886 34951 ft 500 kts 83°
2026-05-09 11:25 25.85097 86.30686 34949 ft 520 kts 83°
2026-05-09 11:25 25.86222 86.38767 34948 ft 539 kts 83°
2026-05-09 11:25 25.86794 86.42861 35197 ft 538 kts 83°
2026-05-09 11:26 25.87380 86.47041 35308 ft 545 kts 83°
2026-05-09 11:26 25.87957 86.51095 36177 ft 528 kts 83°
2026-05-09 11:26 25.88540 86.55091 37030 ft 517 kts 83°
2026-05-09 11:26 25.89127 86.59020 37514 ft 515 kts 83°
2026-05-09 11:27 25.89725 86.62974 37632 ft 522 kts 83°
2026-05-09 11:27 25.90335 86.66992 37420 ft 534 kts 83°
2026-05-09 11:27 25.90955 86.71106 37182 ft 548 kts 83°
2026-05-09 11:27 25.91578 86.75254 37534 ft 544 kts 83°
2026-05-09 11:28 25.92207 86.79441 37398 ft 555 kts 83°
2026-05-09 11:28 25.92834 86.83584 38444 ft 535 kts 83°
2026-05-09 11:28 25.93452 86.87600 39302 ft 520 kts 83°
2026-05-09 11:28 25.94056 86.91530 39827 ft 514 kts 83°
2026-05-09 11:29 25.94651 86.95451 40023 ft 517 kts 83°
2026-05-09 11:29 25.95249 86.99419 39896 ft 527 kts 83°
2026-05-09 11:29 25.95858 87.03488 39676 ft 539 kts 83°
2026-05-09 11:29 25.96482 87.07649 39453 ft 551 kts 83°
2026-05-09 11:30 25.97043 87.11839 39620 ft 547 kts 88°
2026-05-09 11:30 25.97412 87.16039 39826 ft 541 kts 87°
2026-05-09 11:30 25.97844 87.20156 39849 ft 534 kts 85°
2026-05-09 11:30 25.98371 87.24242 39639 ft 534 kts 84°
2026-05-09 11:31 25.98954 87.28319 39408 ft 535 kts 84°
2026-05-09 11:31 25.99555 87.32408 39186 ft 538 kts 83°
2026-05-09 11:31 26.00160 87.36470 38966 ft 539 kts 83°
2026-05-09 11:31 26.00783 87.40597 38746 ft 540 kts 83°
2026-05-09 11:32 26.01412 87.44712 38521 ft 540 kts 83°
2026-05-09 11:32 26.02049 87.48830 38263 ft 540 kts 83°
2026-05-09 11:32 26.02689 87.52938 38000 ft 538 kts 83°
2026-05-09 11:32 26.03327 87.57033 37742 ft 535 kts 83°
2026-05-09 11:33 26.03954 87.61051 37478 ft 532 kts 83°
2026-05-09 11:33 26.04587 87.65105 37228 ft 529 kts 83°
2026-05-09 11:33 26.05843 87.73127 36725 ft 522 kts 83°
2026-05-09 11:34 26.06468 87.77099 36478 ft 519 kts 83°
2026-05-09 11:34 26.07133 87.81032 36245 ft 516 kts 82°
2026-05-09 11:34 26.07848 87.84932 35997 ft 513 kts 82°
2026-05-09 11:34 26.08562 87.88759 35757 ft 510 kts 82°
2026-05-09 11:35 26.09285 87.92608 35524 ft 506 kts 81°
2026-05-09 11:35 26.10488 87.96270 35661 ft 508 kts 59°
2026-05-09 11:35 26.12776 87.99205 36097 ft 501 kts 34°
2026-05-09 11:35 26.15665 88.01329 36470 ft 497 kts 28°
2026-05-09 11:36 26.18583 88.03414 36830 ft 498 kts 28°
2026-05-09 11:36 26.21515 88.05497 37048 ft 503 kts 27°
2026-05-09 11:36 26.24510 88.07600 36926 ft 515 kts 27°
2026-05-09 11:36 26.27563 88.09733 36677 ft 518 kts 27°
2026-05-09 11:37 26.30617 88.11858 36436 ft 516 kts 27°
2026-05-09 11:37 26.33665 88.13973 36192 ft 514 kts 27°
2026-05-09 11:37 26.36696 88.16070 35950 ft 512 kts 27°
2026-05-09 11:37 26.39717 88.18154 35714 ft 509 kts 27°
2026-05-09 11:38 26.42744 88.20207 35476 ft 506 kts 27°
2026-05-09 11:38 26.45759 88.22215 35240 ft 503 kts 26°
2026-05-09 11:38 26.48758 88.24204 35032 ft 501 kts 26°
2026-05-09 11:38 26.51722 88.26166 34977 ft 499 kts 26°
2026-05-09 11:39 26.57689 88.30122 34965 ft 497 kts 26°
2026-05-09 11:40 26.66093 88.36754 35322 ft 501 kts 58°
2026-05-09 11:40 26.67321 88.40352 35668 ft 494 kts 87°
2026-05-09 11:40 26.67265 88.44143 35923 ft 487 kts 101°
2026-05-09 11:40 26.66929 88.47931 36191 ft 491 kts 101°
2026-05-09 11:41 26.66560 88.51743 36361 ft 496 kts 103°
2026-05-09 11:41 26.66116 88.55603 36245 ft 505 kts 103°
2026-05-09 11:41 26.65658 88.59467 35929 ft 498 kts 103°
2026-05-09 11:41 26.65204 88.63293 35374 ft 495 kts 103°
2026-05-09 11:42 26.64757 88.67040 34886 ft 491 kts 103°
2026-05-09 11:42 26.64308 88.70800 34434 ft 485 kts 103°
2026-05-09 11:42 26.63864 88.74523 34001 ft 480 kts 103°
2026-05-09 11:42 26.63425 88.78211 33508 ft 475 kts 103°
2026-05-09 11:43 26.62985 88.81848 33014 ft 469 kts 103°
2026-05-09 11:43 26.62538 88.85436 32521 ft 464 kts 103°
2026-05-09 11:43 26.62074 88.88990 31752 ft 464 kts 103°
2026-05-09 11:43 26.61547 88.92556 31079 ft 463 kts 105°
2026-05-09 11:44 26.60881 88.96066 30538 ft 457 kts 108°
2026-05-09 11:44 26.60085 88.99481 30012 ft 451 kts 110°
2026-05-09 11:44 26.59291 89.02802 29668 ft 441 kts 108°
2026-05-09 11:44 26.58480 89.06063 29345 ft 429 kts 110°
2026-05-09 11:45 26.57651 89.09243 28887 ft 423 kts 110°
2026-05-09 11:45 26.56821 89.12372 28381 ft 418 kts 110°
2026-05-09 11:45 26.55991 89.15462 27879 ft 413 kts 110°
2026-05-09 11:45 26.55160 89.18518 27378 ft 409 kts 110°
2026-05-09 11:46 26.54329 89.21536 26885 ft 405 kts 110°
2026-05-09 11:46 26.53493 89.24535 26396 ft 402 kts 110°
2026-05-09 11:46 26.52656 89.27503 25921 ft 398 kts 110°
2026-05-09 11:46 26.51821 89.30428 25455 ft 395 kts 110°
2026-05-09 11:47 26.50979 89.33344 24987 ft 391 kts 110°
2026-05-09 11:47 26.50150 89.36184 24532 ft 388 kts 110°
2026-05-09 11:47 26.49309 89.39032 24080 ft 385 kts 110°
2026-05-09 11:47 26.48463 89.41864 23632 ft 382 kts 110°
2026-05-09 11:48 26.47619 89.44660 23144 ft 378 kts 110°
2026-05-09 11:48 26.46775 89.47435 22623 ft 375 kts 110°
2026-05-09 11:48 26.45940 89.50181 22159 ft 371 kts 110°
2026-05-09 11:48 26.45112 89.52908 21981 ft 370 kts 110°
2026-05-09 11:49 26.44285 89.55634 21969 ft 370 kts 110°
2026-05-09 11:49 26.43462 89.58357 21966 ft 370 kts 110°
2026-05-09 11:49 26.42641 89.61078 21968 ft 370 kts 110°
2026-05-09 11:49 26.41830 89.63766 21969 ft 370 kts 110°
2026-05-09 11:50 26.41007 89.66492 21972 ft 370 kts 110°
2026-05-09 11:50 26.40187 89.69216 21969 ft 370 kts 110°
2026-05-09 11:50 26.39369 89.71939 21971 ft 370 kts 110°
2026-05-09 11:50 26.38552 89.74666 21970 ft 370 kts 110°
2026-05-09 11:51 26.37735 89.77390 21970 ft 370 kts 110°
2026-05-09 11:51 26.36920 89.80112 21967 ft 370 kts 110°
2026-05-09 11:51 26.36113 89.82803 21968 ft 370 kts 110°
2026-05-09 11:51 26.35302 89.85530 21964 ft 370 kts 110°
2026-05-09 11:52 26.34494 89.88238 21805 ft 365 kts 110°
2026-05-09 11:52 26.33695 89.90917 21270 ft 363 kts 110°
2026-05-09 11:52 26.32899 89.93582 20723 ft 362 kts 110°
2026-05-09 11:52 26.32105 89.96238 20225 ft 359 kts 110°
2026-05-09 11:53 26.31321 89.98864 19738 ft 356 kts 110°
2026-05-09 11:53 26.30542 90.01467 19252 ft 353 kts 110°
2026-05-09 11:53 26.30029 90.03183 18942 ft 350 kts 110°
2026-05-09 11:53 26.29001 90.06608 18327 ft 346 kts 110°
2026-05-09 11:54 26.28239 90.09143 17827 ft 343 kts 110°
2026-05-09 11:54 26.27736 90.10812 17478 ft 341 kts 110°
2026-05-09 11:54 26.26984 90.13310 16957 ft 338 kts 110°
2026-05-09 11:54 26.26241 90.15779 16445 ft 335 kts 110°
2026-05-09 11:55 26.25508 90.18233 15954 ft 332 kts 109°
2026-05-09 11:56 26.22088 90.30201 13601 ft 318 kts 109°
2026-05-09 11:56 26.21424 90.32534 13087 ft 315 kts 109°
2026-05-09 11:56 26.20764 90.34847 12586 ft 312 kts 109°
2026-05-09 11:57 26.20108 90.37135 12097 ft 309 kts 109°
2026-05-09 11:57 26.19465 90.39406 11602 ft 306 kts 108°
2026-05-09 11:57 26.18845 90.41658 11150 ft 303 kts 108°
2026-05-09 11:57 26.18234 90.43895 10704 ft 300 kts 108°
2026-05-09 11:58 26.17627 90.46108 10252 ft 297 kts 108°
2026-05-09 11:58 26.17022 90.48300 10009 ft 296 kts 108°
2026-05-09 11:58 26.16431 90.50466 9953 ft 296 kts 107°
2026-05-09 11:58 26.15856 90.52662 9952 ft 295 kts 107°
2026-05-09 11:59 26.15284 90.54861 9951 ft 295 kts 107°
2026-05-09 11:59 26.14711 90.57058 9949 ft 295 kts 107°
2026-05-09 11:59 26.14139 90.59253 9951 ft 295 kts 107°
2026-05-09 11:59 26.13600 90.61460 9965 ft 296 kts 105°
2026-05-09 12:00 26.13087 90.63678 9938 ft 296 kts 105°
2026-05-09 12:00 26.12582 90.65896 9947 ft 296 kts 104°
2026-05-09 12:00 26.12119 90.68133 9951 ft 296 kts 103°
2026-05-09 12:00 26.11673 90.70372 9951 ft 297 kts 103°
2026-05-09 12:01 26.11228 90.72617 9949 ft 297 kts 103°
2026-05-09 12:01 26.10806 90.74864 9949 ft 297 kts 102°
2026-05-09 12:01 26.10473 90.77132 9951 ft 298 kts 99°
2026-05-09 12:01 26.10213 90.79425 9942 ft 298 kts 98°
2026-05-09 12:02 26.09979 90.81683 9951 ft 298 kts 97°
2026-05-09 12:02 26.09746 90.83980 9950 ft 298 kts 97°
2026-05-09 12:02 26.09411 90.86248 9936 ft 297 kts 108°
2026-05-09 12:02 26.08613 90.88360 9947 ft 296 kts 117°
2026-05-09 12:03 26.07681 90.90405 9900 ft 296 kts 120°
2026-05-09 12:03 26.06698 90.92395 9544 ft 291 kts 120°
2026-05-09 12:03 26.05773 90.94401 8996 ft 290 kts 117°
2026-05-09 12:03 26.04901 90.96428 8469 ft 289 kts 117°
2026-05-09 12:04 26.04041 90.98445 7957 ft 287 kts 116°
2026-05-09 12:04 26.03185 91.00447 7470 ft 285 kts 116°
2026-05-09 12:04 26.02334 91.02429 6997 ft 283 kts 116°
2026-05-09 12:04 26.01486 91.04393 6521 ft 281 kts 116°
2026-05-09 12:05 26.01330 91.04753 6434 ft 280 kts 116°
2026-05-09 12:07 26.00731 91.06134 6111 ft 279 kts 116°
2026-05-09 12:07 25.99887 91.08072 5619 ft 277 kts 116°
2026-05-09 12:07 25.99045 91.09990 5113 ft 275 kts 116°
2026-05-09 12:08 25.98204 91.11894 4641 ft 273 kts 116°
2026-05-09 12:08 25.97388 91.13722 4416 ft 261 kts 116°
2026-05-09 12:08 25.96597 91.15484 4260 ft 248 kts 116°
2026-05-09 12:08 25.95843 91.17160 4114 ft 237 kts 116°
2026-05-09 12:09 25.95124 91.18760 4004 ft 226 kts 116°
2026-05-09 12:09 25.94438 91.20291 3963 ft 219 kts 116°
2026-05-09 12:09 25.93759 91.21805 3968 ft 219 kts 116°
2026-05-09 12:10 25.91718 91.26367 3968 ft 220 kts 116°
2026-05-09 12:10 25.91512 91.26828 3973 ft 220 kts 116°
2026-05-09 12:10 25.91344 91.27202 3968 ft 220 kts 116°
2026-05-09 12:11 25.90731 91.28754 4036 ft 218 kts 108°
2026-05-09 12:11 25.90425 91.30326 4181 ft 200 kts 96°
2026-05-09 12:11 25.90319 91.31993 4387 ft 235 kts 92°
2026-05-09 12:11 25.90211 91.33736 5588 ft 209 kts 95°
2026-05-09 12:12 25.90097 91.35485 5930 ft 247 kts 95°
2026-05-09 12:12 25.90021 91.36777 6223 ft 257 kts 94°
2026-05-09 12:12 25.89949 91.38039 6004 ft 293 kts 94°
2026-05-09 12:12 25.89827 91.40442 5418 ft 320 kts 93°
2026-05-09 12:13 25.89780 91.42826 4908 ft 292 kts 88°
2026-05-09 12:13 25.90071 91.44958 4425 ft 268 kts 74°
2026-05-09 12:13 25.90682 91.46849 3799 ft 249 kts 68°
2026-05-09 12:13 25.91417 91.48477 3223 ft 227 kts 51°
2026-05-09 12:14 25.92588 91.49442 3032 ft 195 kts 29°
2026-05-09 12:14 25.93720 91.50078 2856 ft 171 kts 26°
2026-05-09 12:14 25.94721 91.50636 2753 ft 146 kts 26°
2026-05-09 12:14 25.95689 91.51147 2923 ft 166 kts 25°
2026-05-09 12:15 25.96634 91.51640 2839 ft 142 kts 25°
2026-05-09 12:15 25.97540 91.52110 2306 ft 150 kts 25°
2026-05-09 12:15 25.98525 91.52621 1663 ft 162 kts 25°
2026-05-09 12:15 25.99571 91.53169 1036 ft 158 kts 24°
2026-05-09 12:16 26.00448 91.53636 1302 ft 137 kts 25°
2026-05-09 12:16 26.01397 91.54158 1415 ft 184 kts 26°
2026-05-09 12:16 26.02604 91.54808 1724 ft 177 kts 25°
2026-05-09 12:16 26.03738 91.55415 2192 ft 187 kts 26°
2026-05-09 12:17 26.04783 91.55975 2161 ft 154 kts 26°
2026-05-09 12:17 26.05712 91.56450 1909 ft 141 kts 24°
2026-05-09 12:17 26.06559 91.56856 1650 ft 141 kts 24°
2026-05-09 12:17 26.07489 91.57294 1340 ft 147 kts 23°
2026-05-09 12:18 26.08443 91.57671 1012 ft 144 kts 15°
2026-05-09 12:18 26.09424 91.57964 431 ft 151 kts 16°
2026-05-09 12:18 26.10376 91.58383 176 ft 147 kts 23°
2026-05-09 12:18 26.11045 91.58691 176 ft 73 kts 24°
2026-05-09 12:19 26.11399 91.58863 173 ft 37 kts 24°
2026-05-09 12:19 26.11436 91.58878 173 ft 0 kts 21°